Wetbulb
41.29 37.52 35.83 37.30 36.10 35.69 33.14 31.81 31.42 33.95 38.27 35.39 34.81 36.64 33.72 36.01 31.51 29.39 28.16 28.14 28.61 29.92 31.97 32.37 32.16 30.87 30.92 31.29 31.34 31.76 32.82 33.52 34.09 34.10 33.29 32.83 32.37 33.56 34.07 34.70 35.06 35.13 36.38 37.82
38.18 35.06 38.83 38.85 37.44 35.57 34.19 32.27 31.43 34.77 36.29 33.93 33.84 33.14 35.65 34.81 33.40 32.93 30.29 27.76 28.27 29.29 30.43 31.44 30.78 29.57 29.83 29.76 30.41 31.57 32.58 32.82 33.21 33.21 32.83 32.39 31.66 31.63 31.75 32.26 32.29 32.34 32.73 33.48
36.01 38.53 38.72 37.02 34.22 33.69 32.15 31.65 30.60 31.73 32.75 32.77 30.84 28.94 33.86 32.05 33.68 30.63 30.18 30.18 29.14 29.01 29.48 29.69 29.57 27.56 28.60 29.01 29.10 31.22 31.90 32.27 31.97 31.54 32.25 31.24 30.50 29.87 29.02 28.98 28.93 30.06 30.53 30.55
35.65 36.93 36.37 34.78 33.87 34.71 30.04 33.19 33.10 31.57 28.26 23.91 28.93 23.48 27.60 27.62 29.77 29.58 30.35 27.67 27.64 28.36 29.79 30.16 29.50 27.52 27.45 29.22 29.36 30.18 31.49 31.29 31.89 30.44 29.34 27.26 25.76 24.45 26.64 26.83 27.42 27.62 28.35 27.94
37.25 33.96 33.66 33.34 34.42 35.78 32.80 32.31 31.36 29.65 26.71 23.63 25.87 22.11 26.77 26.42 26.37 27.57 29.27 27.46 26.66 27.92 28.67 29.19 29.35 29.77 28.95 29.70 28.16 28.80 29.83 29.91 29.88 28.64 27.46 25.88 24.77 25.19 25.89 25.47 24.86 24.96 25.47 27.09
35.97 35.37 34.77 34.76 34.93 34.23 34.44 31.30 29.67 26.89 24.00 16.98 24.19 23.90 22.25 22.41 27.62 28.65 29.95 27.17 27.30 27.27 27.85 28.99 29.61 29.22 29.18 28.72 27.85 27.89 28.08 28.28 28.63 27.32 26.15 24.47 23.28 23.03 22.68 22.44 22.15 22.65 23.13 24.97
32.84 33.04 32.93 35.52 31.85 33.83 32.42 27.59 22.12 18.91 16.10 19.91 23.01 20.69 29.84 29.44 28.90 30.06 30.00 27.04 26.34 26.98 26.93 27.38 27.33 27.27 27.52 27.08 27.29 27.52 27.45 26.42 27.10 26.04 25.32 24.30 23.14 22.41 21.29 21.30 21.18 20.55 20.76 21.59
28.96 28.17 32.24 34.45 33.03 31.73 30.04 28.41 22.87 14.87 15.89 25.45 21.32 20.43 26.36 27.06 27.04 29.97 30.63 27.55 26.21 25.95 26.81 26.93 27.37 26.91 26.54 26.71 26.35 26.14 25.20 25.68 25.68 24.74 24.02 23.69 22.74 21.91 21.58 21.47 20.77 19.53 20.04 19.53
27.63 27.77 30.67 31.34 31.58 32.80 28.55 25.26 28.17 20.51 4.97 10.14 20.61 23.96 27.94 25.16 23.99 24.34 24.79 24.86 24.39 25.12 25.79 26.46 26.71 26.14 25.55 25.46 25.49 24.77 24.25 24.77 24.49 23.38 22.60 21.77 21.63 20.98 20.19 20.18 20.14 19.65 19.67 19.90
33.13 27.93 29.05 28.53 30.19 29.36 28.89 30.66 22.54 21.47 14.58 10.77 20.59 22.31 26.08 22.19 22.48 22.76 23.11 23.73 23.91 24.90 25.60 26.17 26.05 26.15 25.99 25.45 24.68 24.06 23.41 22.57 22.39 21.82 21.11 21.05 20.03 20.18 20.16 19.72 18.81 18.85 18.88 18.85
30.83 31.10 26.63 27.43 26.15 27.93 24.27 24.23 24.44 24.93 25.36 18.90 17.13 26.61 26.80 25.96 26.64 23.81 24.62 25.08 24.40 24.42 25.09 25.36 25.44 25.15 24.99 24.10 22.64 21.88 20.65 20.67 20.84 20.78 20.00 19.11 18.83 19.02 19.09 18.52 17.94 17.74 18.24 17.67
31.90 28.12 23.62 24.77 26.92 26.47 26.90 27.95 28.23 22.29 19.95 22.51 22.38 24.16 30.48 28.32 28.03 27.22 25.76 25.39 24.16 24.88 24.87 24.63 24.31 23.68 23.09 21.93 20.83 19.66 19.11 19.14 19.81 19.22 18.47 17.56 17.53 17.28 16.89 16.46 17.11 17.91 16.48 17.21
31.18 25.98 19.65 25.38 23.43 23.54 23.37 24.58 28.19 25.91 25.52 23.57 19.79 24.61 25.20 24.22 24.19 25.10 24.02 23.84 24.16 24.58 23.94 23.78 23.00 22.19 20.96 19.71 18.53 18.02 17.23 17.87 18.37 17.43 16.20 15.54 15.21 14.97 15.20 15.82 16.19 16.07 15.72 15.27
36.52 27.80 27.36 27.68 29.96 26.17 21.93 21.76 24.18 26.95 23.66 24.45 23.85 25.98 31.14 26.96 22.52 21.55 22.48 23.27 22.85 23.31 23.55 22.53 21.20 20.60 19.37 19.39 16.60 15.80 16.50 17.10 16.33 15.37 14.02 13.17 13.49 14.32 14.42 14.81 14.68 14.38 14.40 13.53
32.17 28.41 27.15 32.08 33.88 27.44 29.01 29.66 25.01 23.81 26.93 24.16 27.46 28.26 31.68 34.08 29.97 23.30 25.03 22.03 22.61 22.39 22.47 20.99 21.08 18.80 17.16 16.74 15.84 15.51 15.44 14.92 14.67 12.80 11.53 11.70 13.17 13.64 13.41 13.57 12.50 12.35 12.49 12.90
27.75 26.68 27.06 26.24 29.09 26.80 25.80 28.93 29.17 28.12 28.21 27.68 28.05 27.31 34.90 35.47 24.00 23.31 22.66 23.08 22.85 22.33 21.85 22.26 22.05 20.14 18.96 17.84 16.27 16.75 13.16 13.02 13.16 9.87 10.74 11.76 11.39 12.02 11.67 10.90 10.35 10.51 10.73 10.95
25.06 25.67 23.09 24.98 26.35 24.62 21.72 26.26 27.15 28.60 29.56 28.26 22.68 29.07 34.20 30.50 23.43 21.98 22.15 23.48 23.21 22.66 22.04 20.66 18.38 17.04 16.59 14.68 15.58 11.15 11.22 11.02 9.97 9.76 8.65 8.47 9.60 8.14 8.76 8.63 7.72 7.96 8.04 9.12
26.00 26.55 26.70 23.71 22.70 16.59 29.57 24.20 27.51 26.82 28.43 29.07 28.90 30.27 29.42 25.13 22.73 22.69 24.70 22.87 22.11 21.62 20.50 19.09 15.79 12.95 13.90 13.21 11.92 10.50 10.54 9.37 8.93 7.05 6.15 7.48 6.65 5.65 5.87 5.28 4.88 5.51 8.07 9.12
34.29 32.18 25.69 22.44 20.84 25.26 29.61 29.98 22.50 21.21 27.45 27.74 28.39 30.22 30.38 22.31 20.87 18.32 22.09 21.13 20.30 18.83 17.41 15.12 12.97 12.08 11.86 10.93 9.91 8.31 7.98 7.89 6.85 5.73 5.55 4.95 4.37 1.99 2.36 0.78 2.39 6.12 7.91 8.59
31.28 31.14 29.07 20.26 17.33 16.69 30.10 21.05 23.76 25.33 20.41 30.06 28.71 28.27 21.60 21.59 14.96 16.90 19.75 19.66 17.74 16.83 15.82 13.90 12.78 11.94 10.36 8.44 8.24 6.17 5.65 4.73 3.87 4.06 3.47 3.55 2.15 -0.29 -0.66 1.72 3.95 5.77 7.20 8.97
22.97 24.43 24.17 25.44 23.78 20.86 27.84 22.74 24.28 17.74 27.58 24.94 25.87 24.00 22.30 21.77 22.71 21.70 20.60 18.03 17.47 15.28 13.42 11.20 10.52 8.56 7.65 7.62 6.34 3.81 3.75 2.42 3.24 2.18 1.69 0.20 -0.32 -1.35 2.38 3.40 3.39 5.37 6.07 8.12
21.40 20.51 18.45 23.65 18.19 17.78 25.90 21.84 22.80 28.22 24.48 24.69 23.01 22.66 23.13 22.04 20.13 20.62 19.37 16.90 15.04 11.94 11.48 10.54 8.25 6.79 6.85 6.36 3.32 1.53 0.84 2.74 1.26 -0.06 -2.95 -4.47 -3.52 1.66 3.29 1.18 2.72 4.24 3.96 5.12
25.13 26.32 21.33 23.72 22.62 28.20 28.66 26.51 29.51 27.56 25.67 23.63 23.51 24.49 25.32 21.72 20.20 20.08 17.85 15.89 14.06 10.68 10.49 7.68 4.73 4.40 4.79 3.99 2.04 -1.28 0.29 0.07 -1.67 -7.39 -8.91 -5.66 -0.51 1.54 2.06 0.91 1.92 2.14 2.99 3.89
25.27 30.38 25.39 24.98 30.25 28.39 27.26 29.93 29.26 27.77 27.44 27.05 26.73 25.30 25.54 23.83 21.95 19.49 17.31 14.48 11.77 10.15 7.95 5.42 3.42 2.48 1.43 0.66 0.30 -2.38 -2.07 -3.02 -9.31 -11.52 -7.14 -1.81 -0.67 -0.15 1.23 2.36 3.23 2.06 2.37 2.25
29.16 28.70 27.99 26.87 30.78 29.48 31.58 28.42 28.83 27.96 27.57 26.02 25.44 25.30 25.97 24.21 21.86 19.55 15.78 12.29 10.68 8.53 6.14 4.41 2.61 1.14 -0.88 -0.56 -2.00 -3.93 -4.65 -7.59 -10.64 -8.01 -3.98 -3.49 -1.60 -1.58 0.11 1.91 1.53 3.86 5.61 7.55
29.35 30.17 27.43 28.27 34.08 33.35 33.27 29.97 29.64 27.71 26.58 26.15 25.15 23.07 23.23 24.66 21.09 18.23 13.68 11.01 8.31 6.08 3.76 1.79 0.73 -0.43 -1.92 -3.02 -3.87 -5.34 -9.75 -11.65 -13.53 -9.24 -6.38 -4.50 -3.32 -2.18 -0.42 -0.74 -0.31 6.54 9.68 10.73
MSLP
1016.10 1016.68 1016.89 1016.98 1017.15 1017.04 1017.37 1017.52 1017.54 1016.29 1015.98 1016.63 1016.42 1016.72 1017.15 1017.92 1019.19 1019.89 1020.45 1020.69 1020.91 1020.86 1020.85 1021.08 1021.03 1021.04 1021.00 1020.80 1020.84 1020.51 1019.81 1019.69 1019.79 1019.66 1019.60 1019.32 1019.17 1018.65 1018.33 1017.83 1017.38 1016.90 1016.24 1015.49
1016.73 1016.60 1016.24 1016.67 1017.09 1017.35 1017.65 1017.90 1017.50 1016.75 1016.34 1016.84 1016.37 1016.52 1016.27 1017.20 1017.44 1017.85 1018.97 1020.00 1020.39 1020.61 1020.66 1020.79 1020.82 1020.81 1020.90 1020.99 1020.93 1020.39 1020.24 1020.27 1020.15 1019.94 1019.86 1019.70 1019.22 1018.75 1018.18 1017.59 1017.34 1016.87 1016.23 1015.60
1016.72 1016.30 1016.39 1016.86 1017.30 1017.73 1017.74 1018.03 1017.74 1017.60 1017.43 1017.30 1016.66 1016.09 1015.77 1016.56 1017.06 1017.74 1018.64 1019.28 1019.75 1020.07 1020.37 1020.50 1020.62 1020.67 1020.90 1021.04 1021.02 1020.79 1020.60 1020.42 1020.13 1019.90 1019.64 1019.36 1019.14 1018.55 1017.94 1017.68 1017.22 1016.68 1016.07 1015.48
1016.55 1016.38 1016.72 1017.17 1017.43 1017.73 1017.83 1017.40 1017.76 1018.19 1018.70 1018.84 1018.29 1016.45 1015.94 1016.23 1016.61 1017.33 1018.19 1018.95 1019.25 1019.64 1019.74 1019.96 1020.16 1020.27 1020.56 1020.77 1020.79 1020.64 1020.41 1020.27 1020.04 1019.80 1019.65 1019.59 1019.20 1018.71 1018.45 1017.78 1016.91 1016.10 1015.78 1015.19
1016.10 1016.49 1017.05 1017.37 1017.17 1017.37 1017.56 1017.74 1018.38 1018.76 1019.44 1019.70 1018.89 1019.10 1015.66 1016.05 1016.30 1016.45 1017.13 1018.04 1018.91 1019.28 1019.42 1019.51 1019.67 1019.96 1020.17 1020.44 1020.59 1020.48 1020.37 1020.06 1019.77 1019.60 1019.22 1019.18 1019.41 1019.27 1018.29 1017.56 1016.75 1016.02 1015.33 1014.77
1016.53 1016.66 1016.78 1016.82 1017.23 1017.55 1018.00 1018.52 1019.03 1019.66 1020.52 1020.39 1018.24 1018.71 1015.26 1015.92 1014.50 1015.14 1016.53 1017.54 1018.21 1018.89 1019.15 1019.27 1019.35 1019.70 1020.14 1020.24 1020.32 1020.32 1020.26 1019.62 1019.42 1018.91 1019.03 1019.39 1019.35 1018.84 1018.03 1017.40 1016.58 1015.38 1014.75 1013.95
1017.10 1016.80 1016.86 1017.04 1017.65 1018.10 1018.59 1019.79 1020.64 1021.03 1021.40 1019.72 1018.66 1018.64 1014.07 1013.82 1013.56 1013.85 1014.85 1016.71 1017.74 1018.35 1018.78 1019.17 1019.48 1019.63 1019.87 1020.05 1020.10 1020.04 1019.76 1019.28 1018.52 1018.69 1018.90 1018.95 1018.78 1018.36 1017.89 1017.23 1016.39 1015.32 1014.34 1013.56
1017.75 1017.21 1017.08 1017.17 1017.38 1017.81 1018.84 1019.74 1021.11 1022.03 1021.90 1019.45 1019.07 1016.85 1013.57 1013.56 1013.73 1013.51 1014.53 1016.23 1017.39 1018.07 1018.45 1018.90 1019.21 1019.30 1019.52 1019.72 1019.77 1019.71 1019.10 1018.48 1018.36 1018.42 1018.34 1018.20 1017.88 1017.54 1017.05 1016.33 1015.89 1015.23 1014.27 1013.32
1017.38 1017.47 1017.19 1017.44 1017.56 1018.02 1019.06 1019.73 1020.06 1021.49 1022.89 1021.56 1017.65 1014.94 1013.29 1013.91 1014.49 1014.86 1015.57 1016.61 1017.36 1017.93 1018.27 1018.63 1018.84 1019.03 1019.47 1019.67 1019.36 1018.57 1018.29 1018.34 1018.35 1018.11 1017.87 1017.79 1017.59 1017.12 1016.45 1015.78 1015.25 1014.42 1013.69 1012.81
1016.22 1017.21 1017.56 1018.06 1018.23 1018.41 1018.60 1019.09 1020.35 1021.44 1021.99 1020.68 1016.27 1014.35 1013.62 1013.93 1014.53 1015.18 1015.98 1016.50 1017.08 1017.57 1018.04 1018.31 1018.56 1018.91 1019.19 1019.02 1018.69 1018.63 1018.66 1018.50 1018.07 1017.78 1017.73 1017.35 1016.80 1016.37 1015.79 1015.19 1014.45 1013.66 1012.84 1012.11
1016.32 1017.15 1018.42 1018.74 1018.43 1018.14 1019.32 1019.18 1019.71 1020.48 1020.50 1019.98 1017.90 1010.88 1010.29 1011.43 1012.36 1013.99 1014.67 1015.32 1016.35 1017.13 1017.55 1017.94 1018.33 1018.64 1018.61 1018.87 1019.14 1018.89 1018.49 1018.16 1017.77 1017.39 1016.99 1016.68 1016.22 1015.54 1014.94 1014.44 1013.86 1013.02 1012.13 1011.36
1015.66 1016.66 1017.55 1016.97 1017.13 1017.28 1017.25 1017.30 1017.92 1018.70 1018.70 1017.68 1017.22 1009.74 1010.09 1010.56 1011.35 1012.98 1013.98 1014.75 1015.59 1016.36 1017.09 1017.68 1017.87 1018.20 1018.77 1019.05 1018.73 1018.43 1018.09 1017.82 1017.34 1016.98 1016.77 1016.20 1015.75 1014.94 1014.14 1013.60 1013.06 1012.17 1011.15 1010.29
1015.07 1015.77 1016.73 1016.57 1017.40 1017.30 1017.15 1016.49 1016.18 1016.51 1016.54 1014.74 1015.73 1009.43 1009.29 1010.05 1010.84 1011.70 1012.95 1014.14 1015.10 1016.00 1016.51 1017.07 1017.64 1017.96 1018.35 1018.56 1018.35 1017.99 1017.63 1017.44 1017.26 1017.15 1016.54 1015.90 1015.08 1014.18 1013.36 1012.66 1012.12 1011.27 1010.27 1009.42
1013.60 1014.30 1014.51 1014.13 1013.53 1014.63 1015.71 1015.20 1015.53 1015.93 1014.97 1013.01 1011.17 1009.11 1008.18 1009.91 1011.21 1012.36 1013.06 1013.97 1014.69 1015.47 1016.26 1016.80 1017.32 1017.88 1018.28 1018.47 1018.14 1017.67 1017.47 1017.51 1017.36 1016.97 1016.41 1015.69 1014.58 1013.86 1013.04 1012.07 1011.30 1010.45 1009.53 1008.57
1013.94 1013.75 1014.11 1012.84 1012.93 1013.91 1013.66 1012.43 1014.17 1013.79 1012.05 1012.60 1007.88 1008.49 1007.75 1007.55 1009.71 1011.14 1011.72 1013.39 1014.45 1015.35 1016.15 1016.80 1017.31 1017.85 1018.21 1017.86 1017.41 1017.35 1017.39 1017.47 1017.26 1016.75 1016.09 1015.33 1014.22 1013.41 1012.46 1011.45 1010.59 1009.69 1008.63 1007.59
1014.38 1013.58 1013.80 1013.21 1013.26 1013.75 1013.30 1011.01 1011.79 1011.64 1010.45 1010.41 1008.40 1006.83 1004.82 1006.97 1008.69 1010.01 1011.47 1012.75 1014.06 1014.81 1015.67 1016.54 1017.36 1017.46 1017.26 1017.29 1017.32 1017.43 1017.61 1017.27 1017.16 1016.55 1015.76 1015.00 1013.99 1012.96 1012.03 1010.99 1009.87 1008.83 1007.64 1006.78
1014.22 1014.11 1014.35 1012.99 1013.53 1014.35 1012.10 1008.26 1009.49 1008.95 1008.04 1008.38 1008.30 1004.75 1004.99 1007.12 1008.38 1009.84 1011.13 1012.14 1013.26 1014.51 1015.56 1016.56 1016.81 1016.97 1016.96 1017.17 1017.65 1017.95 1017.82 1017.48 1016.86 1016.26 1015.62 1014.79 1013.70 1012.64 1011.56 1010.54 1009.30 1008.11 1006.87 1005.91
1012.56 1013.43 1013.90 1013.35 1014.20 1012.95 1006.64 1007.11 1007.35 1007.60 1005.63 1006.96 1006.15 1004.95 1005.74 1006.79 1007.86 1008.90 1010.04 1011.62 1013.29 1014.40 1015.32 1015.98 1016.62 1016.83 1017.32 1017.76 1018.02 1018.11 1017.88 1017.23 1016.58 1016.04 1015.47 1014.62 1013.69 1012.60 1011.43 1010.14 1008.85 1007.51 1006.15 1004.83
1010.54 1011.39 1012.33 1012.73 1011.96 1009.70 1005.81 1006.22 1007.09 1007.23 1003.56 1004.69 1004.34 1003.89 1005.37 1007.40 1008.97 1010.25 1010.59 1011.56 1012.81 1014.07 1015.09 1016.05 1016.41 1016.94 1017.65 1017.88 1018.09 1018.15 1017.80 1017.24 1016.72 1016.06 1015.53 1014.70 1013.82 1012.47 1011.29 1009.79 1008.37 1006.83 1005.24 1003.89
1010.33 1010.55 1011.00 1011.63 1010.64 1009.03 1004.11 1005.96 1006.33 1006.73 1004.19 1001.99 1002.86 1004.03 1005.93 1007.59 1009.30 1009.31 1010.68 1011.71 1012.99 1014.18 1015.20 1015.80 1016.44 1017.15 1017.71 1018.14 1018.38 1018.24 1017.78 1017.53 1017.00 1016.47 1015.81 1014.82 1013.89 1012.63 1011.13 1009.54 1007.79 1006.41 1004.86 1003.23
1010.07 1010.19 1009.41 1009.16 1008.72 1007.00 1004.04 1005.34 1006.23 1006.66 1001.40 1001.27 1002.19 1003.57 1005.43 1006.69 1007.11 1008.19 1010.54 1012.41 1013.61 1014.79 1015.45 1016.16 1016.65 1017.27 1018.20 1018.40 1018.50 1018.27 1018.13 1018.07 1017.59 1016.69 1015.77 1014.72 1013.70 1012.33 1010.61 1009.05 1007.62 1006.01 1004.41 1002.87
1006.75 1008.33 1008.48 1008.56 1008.15 1005.52 1002.63 1005.41 1004.50 1001.12 1001.31 1002.00 1003.05 1003.82 1005.29 1006.67 1007.57 1008.59 1010.23 1012.01 1013.63 1014.47 1015.25 1016.25 1017.12 1017.47 1018.17 1018.67 1018.64 1018.43 1018.32 1018.26 1017.73 1016.95 1015.94 1014.64 1013.22 1011.64 1010.15 1008.77 1007.27 1005.91 1004.47 1002.69
1004.28 1002.98 1003.99 1004.55 1001.71 1000.33 999.94 999.52 999.80 1000.48 1001.44 1002.69 1003.48 1004.02 1004.85 1006.54 1007.90 1009.03 1010.30 1011.90 1013.15 1014.52 1015.65 1016.43 1017.23 1017.76 1018.57 1018.87 1019.04 1019.17 1018.83 1018.51 1017.96 1017.24 1016.00 1014.47 1012.75 1011.36 1010.20 1008.72 1007.18 1005.83 1004.47 1002.82
1001.48 1001.77 1001.89 1002.13 997.71 998.21 998.86 999.13 999.66 999.90 1000.59 1001.85 1002.73 1003.66 1004.67 1005.80 1007.32 1008.67 1010.16 1011.78 1013.14 1014.57 1015.79 1016.81 1017.13 1018.27 1018.85 1019.28 1019.45 1019.84 1019.59 1019.14 1018.56 1017.37 1015.85 1014.20 1012.68 1011.24 1010.23 1009.04 1007.53 1006.06 1004.60 1002.95
997.85 999.13 998.78 998.17 996.13 998.08 997.83 998.45 999.03 999.92 1000.63 1001.74 1002.49 1003.32 1004.12 1005.27 1006.91 1008.13 1009.97 1011.69 1013.06 1014.54 1016.06 1016.42 1017.54 1018.50 1018.66 1019.46 1019.91 1020.02 1020.01 1019.65 1018.83 1017.54 1015.99 1014.51 1013.14 1011.74 1010.29 1009.26 1007.91 1006.26 1005.03 1003.22
994.65 993.41 994.71 992.84 992.48 994.02 994.62 996.30 997.56 998.69 999.63 1000.45 1002.13 1003.53 1004.28 1005.11 1006.79 1008.39 1010.19 1011.66 1013.09 1014.72 1016.07 1016.88 1017.82 1018.54 1018.87 1019.57 1020.18 1020.32 1020.32 1019.98 1019.23 1017.87 1016.31 1014.82 1013.51 1012.20 1010.85 1009.38 1007.83 1006.83 1005.15 1003.54
Wind_Speed
3 4 6 8 6 4 3 5 7 6 7 6 11 16 14 17 8 10 10 10 9 9 6 6 5 4 5 6 6 6 8 8 6 6 9 9 10 11 11 11 16 16 16 17
6 4 5 2 3 4 5 6 8 10 5 3 9 11 9 17 22 21 17 11 10 6 7 7 5 4 5 4 5 7 7 5 5 4 6 7 9 9 10 10 14 16 17 16
5 4 5 3 3 5 4 6 6 9 4 6 9 8 18 4 12 8 8 10 7 10 8 6 5 3 4 5 4 6 7 6 5 6 7 8 9 9 9 11 12 11 17 18
6 1 4 5 5 7 6 3 5 5 4 4 4 12 4 7 16 13 14 10 10 9 7 6 4 1 2 4 4 6 6 6 5 6 6 7 9 13 11 13 13 14 16 18
9 6 6 6 7 8 9 0 4 3 5 4 7 6 6 3 9 15 17 13 10 9 8 8 5 1 2 3 4 5 7 6 5 4 4 5 9 10 11 12 17 16 15 15
6 0 5 7 2 1 1 3 4 3 3 2 7 9 6 7 11 9 15 12 12 9 9 7 4 2 4 5 4 6 7 6 6 6 5 6 10 13 12 15 15 13 13 12
2 5 1 3 2 3 3 5 5 6 3 10 5 4 17 8 8 12 23 17 12 9 8 6 5 4 5 6 6 6 6 7 7 7 8 8 11 13 15 14 13 18 14 12
4 8 9 5 6 7 6 7 7 7 5 15 2 11 8 5 7 7 11 14 9 9 8 7 7 6 6 6 7 7 5 10 9 9 11 10 11 9 10 12 13 14 13 15
7 8 2 1 1 4 5 6 2 1 2 4 7 8 6 4 3 6 11 10 10 9 8 8 7 6 6 6 7 6 7 10 11 12 11 12 11 13 13 15 15 13 16 15
5 7 2 2 1 0 4 4 3 1 3 8 7 11 14 8 11 8 11 13 10 8 8 7 5 6 5 5 6 7 7 9 11 11 10 12 12 13 14 14 18 18 17 18
6 5 2 4 8 11 1 4 3 2 5 5 5 19 8 16 18 19 17 16 13 10 8 7 6 5 3 5 6 7 6 9 12 12 13 13 14 14 15 14 17 17 18 18
8 6 7 14 2 2 2 10 13 7 7 8 3 20 2 9 12 19 17 15 9 8 9 8 5 4 6 6 6 6 6 9 11 13 14 15 15 16 16 16 18 18 19 18
10 5 2 7 2 2 7 7 10 1 2 21 10 17 1 1 7 11 16 12 9 9 7 4 4 5 5 6 6 6 6 10 12 13 14 15 16 16 17 18 19 19 19 19
13 7 10 18 14 7 7 9 10 17 15 18 30 38 26 12 8 6 7 8 9 8 7 5 4 5 5 6 6 5 9 9 12 13 14 16 16 17 18 19 19 19 18 19
9 14 9 22 19 4 15 24 13 23 28 21 40 33 30 25 14 17 19 9 10 8 7 6 6 5 6 5 5 8 9 11 12 14 15 15 17 17 18 18 19 18 18 17
4 9 6 16 9 8 21 26 24 25 31 28 36 41 39 25 4 9 15 14 11 8 8 7 6 4 5 8 9 12 11 13 13 14 15 17 18 18 19 19 19 19 19 17
10 7 5 21 4 4 17 27 27 22 25 21 24 39 30 18 9 12 15 16 13 10 9 7 2 2 6 7 10 9 12 13 13 14 15 16 17 19 19 19 19 19 18 16
10 8 4 5 6 9 11 2 7 21 24 18 24 27 16 5 3 8 13 14 11 10 7 4 1 3 4 5 6 9 11 12 14 15 15 16 18 19 19 19 19 20 17 17
15 13 8 7 10 11 29 10 11 11 33 23 29 28 17 8 6 2 5 8 9 7 6 4 4 3 2 6 8 10 11 11 13 15 17 17 18 19 19 19 20 19 18 18
10 9 10 5 6 12 15 4 5 8 21 17 23 20 10 12 6 7 11 9 8 7 6 6 4 3 5 6 8 10 11 13 14 15 18 17 17 17 18 19 19 19 17 19
6 5 20 17 12 13 12 10 7 6 16 6 10 10 15 10 5 7 14 7 7 6 7 5 5 5 5 6 8 11 11 12 15 16 17 17 16 17 16 18 17 17 18 18
14 13 7 7 5 20 16 8 15 5 1 5 5 8 10 7 9 16 14 13 11 10 7 6 3 4 5 7 8 11 12 14 14 16 17 16 16 13 13 18 16 16 16 17
9 14 14 16 16 3 24 8 20 5 7 5 7 6 12 14 9 15 12 12 10 8 6 5 4 4 4 6 8 10 13 15 15 15 15 14 15 14 14 16 16 13 14 13
6 9 6 4 22 24 19 12 11 7 7 6 6 10 15 14 13 11 12 10 9 7 6 4 4 3 4 5 7 7 12 14 13 14 14 13 14 16 14 12 12 11 11 13
10 17 17 12 22 3 18 20 13 12 8 7 7 10 15 13 12 14 10 10 9 9 6 6 4 2 3 6 7 7 10 11 11 12 12 12 11 13 14 12 12 12 12 16
12 16 15 16 15 13 9 23 20 19 16 15 15 6 4 11 14 11 10 10 10 9 8 6 5 3 4 5 7 7 7 8 9 10 9 10 10 11 12 13 13 20 25 27
Wind_Direction
339 63 240 248 210 197 207 235 230 253 255 222 232 246 205 199 204 204 202 195 185 190 190 165 140 92 35 21 13 348 10 2 1 355 352 342 335 333 323 322 321 326 313 319
5 254 225 184 225 237 232 261 264 285 240 209 269 248 227 191 211 205 191 192 187 191 181 176 143 71 37 357 5 5 356 330 346 360 344 336 330 321 315 321 319 316 312 315
169 254 113 170 231 257 230 212 251 240 338 290 284 246 242 219 224 191 192 193 183 182 184 179 157 85 20 7 355 354 335 329 336 355 340 335 321 323 322 319 312 311 311 309
229 255 185 220 231 172 276 226 256 282 358 259 349 293 260 192 224 204 189 196 185 188 182 160 152 89 1 334 323 336 324 312 337 342 336 331 330 319 313 309 309 311 311 304
252 177 190 217 224 164 236 182 262 264 258 349 230 259 243 141 245 211 197 191 189 192 174 167 166 192 275 306 294 313 301 292 303 317 336 336 308 301 303 306 305 303 304 296
248 290 188 209 138 172 35 334 299 47 98 260 233 195 226 192 217 194 201 186 187 183 177 169 176 213 263 278 289 290 269 278 298 342 323 297 292 302 307 305 301 308 306 297
335 221 58 157 125 18 81 56 314 335 347 235 180 233 256 234 225 196 195 180 182 178 169 185 205 233 255 270 274 280 296 288 336 331 309 296 294 300 294 299 301 307 301 300
208 305 175 181 197 185 177 175 166 260 248 293 352 246 253 290 306 231 171 163 169 174 177 192 211 232 249 255 271 286 301 329 325 317 306 304 290 285 287 295 297 291 289 297
176 266 118 245 173 157 179 189 153 184 126 10 237 277 276 80 45 101 146 160 182 185 189 203 218 228 249 247 268 324 335 323 317 311 309 298 289 293 289 295 294 289 288 289
216 289 208 175 171 14 164 155 68 4 285 273 263 272 247 199 207 187 183 193 196 194 198 209 223 243 237 299 324 321 294 296 304 305 298 299 298 294 292 298 295 291 287 288
144 174 182 118 208 182 161 215 199 197 162 227 298 279 207 192 202 192 201 195 189 192 194 210 226 253 246 281 275 271 287 303 307 309 308 305 299 298 297 295 294 290 289 287
200 166 202 211 237 281 244 207 184 185 222 236 217 259 167 206 195 194 201 191 187 183 190 208 217 210 248 261 279 290 303 307 314 312 308 306 304 306 302 297 293 293 293 288
179 217 325 314 359 330 225 210 219 4 306 245 239 266 22 176 154 197 184 183 186 180 192 214 230 259 273 281 288 298 311 315 311 311 307 307 304 305 301 300 298 298 294 292
145 186 179 237 236 137 215 199 202 211 238 255 242 265 258 251 202 203 194 185 182 185 195 214 271 269 263 271 275 307 317 315 312 310 309 308 308 307 302 303 299 299 297 294
170 235 192 248 261 192 263 259 204 217 238 235 261 259 265 265 233 202 199 172 178 182 198 214 241 243 240 280 328 335 326 318 317 313 312 308 309 306 303 304 304 300 296 294
194 249 151 258 243 222 259 263 253 244 250 249 254 268 265 278 144 160 176 176 179 187 195 215 228 247 346 350 344 333 317 316 318 310 310 311 310 309 310 307 307 305 300 299
167 182 135 256 116 3 271 249 237 246 242 232 243 245 264 260 193 176 176 179 179 182 190 209 202 5 2 353 333 314 314 313 313 315 315 313 314 313 313 312 310 307 303 301
165 188 151 253 102 233 258 126 185 219 247 218 247 255 240 195 154 153 172 161 170 176 181 167 112 29 5 329 322 316 317 318 319 318 316 319 317 315 314 313 313 305 303 303
216 205 218 218 209 309 291 226 177 175 273 200 227 244 247 125 75 323 156 159 162 161 150 149 107 80 344 346 334 323 316 319 322 321 321 319 318 315 313 312 312 306 310 306
214 235 209 151 206 223 259 136 147 137 274 193 208 231 145 140 178 216 176 147 139 139 153 128 88 70 18 348 335 325 328 329 323 325 318 317 315 311 308 309 312 311 307 306
155 190 215 227 242 270 215 160 150 151 259 172 180 161 156 190 194 142 143 137 144 153 126 96 83 51 12 351 343 335 330 322 325 319 317 316 312 308 308 315 313 313 313 310
165 166 193 201 212 260 141 113 190 205 32 146 142 156 164 130 129 142 147 150 157 142 121 104 88 50 18 359 352 336 327 329 322 322 317 313 309 315 322 319 315 319 316 314
193 186 177 192 210 195 182 191 203 150 148 179 158 153 150 143 160 161 159 151 143 134 129 104 75 37 11 2 357 329 325 329 326 319 311 311 318 326 328 325 320 325 322 322
242 190 222 121 242 228 206 218 194 169 160 153 159 151 161 163 161 158 146 142 140 142 135 126 93 51 359 358 342 322 328 330 320 312 315 323 330 331 333 329 325 326 328 324
180 154 204 243 266 12 225 217 192 185 160 145 135 166 176 154 166 157 147 146 144 140 139 123 111 83 23 354 337 335 331 325 321 316 321 329 332 333 332 339 330 334 336 336
192 191 189 223 223 202 236 196 192 185 181 160 164 166 171 161 160 151 147 144 139 143 140 128 116 100 35 358 338 331 321 320 313 323 330 334 334 336 336 336 334 340 351 355